Weather in Malobrusyanskoye

Russia / Sverdlovsk Oblast     56°44′11″N   61°07′51″E
temp.,
°C
wind,
m/s
gust,
m/s
humid.,
%
clouds,
%
prec.,
mm/h
press.,
hPa
HPBL,
m
26 july, mon
mon2623:00+10nw3106217 0.0 1017229
02:00+11wnw266684 0.0 1018168
05:00+10wnw246789 0.0 101995
08:00+13wnw3856100 0.0 1019401
11:00+17wnw573783 0.0 10182355
14:00+17wnw4643100 0.0 10182109
17:00+17w364499 0.0 10171482
20:00+15w375792 0.0 1017259
27 july, tue
tue2723:00+14w496443 0.0 1016334
02:00+10wsw3983100 0.0 1016207
05:00+12wsw4116898 0.0 1014424
08:00+15wsw5116140 0.0 1013571
11:00+16w71268100 0.1 10111260
14:00+18wnw585957 0.3 10111395
17:00+19wnw685413 0.6 10101700
20:00+15nw2678100 0.1 1010252
28 july, wed
wed2823:00+11nw259096 0.2 1011104
02:00+8nw38926 0.0 1011176
05:00+6wnw37955 0.0 1011135
08:00+11wnw496915 0.0 1011510
11:00+14wnw596087 0.4 10091668
14:00+15w695998 0.3 10091721
17:00+14nw695597 0.6 10101597
20:00+12wnw485511 0.0 1011837
29 july, thu
thu2923:00+7wnw237521 0.0 101251
02:00+7sw257489 0.0 1012115
05:00+7w2574100 0.0 101191
08:00+9sw2596100 2.2 1010189
11:00+11sw268920 3.7 1009255
14:00+20w6104623 0.1 10081803
17:00+21wsw494765 0.1 10071973
20:00+16sw388124 0.7 1007217
30 july, fri
fri3023:00+13wsw3119623 3.4 1007270
02:00+12wsw399699 0.1 1006183
05:00+13w41298100 0.1 1006339
08:00+16w489368 0.0 1007411
11:00+18w3577100 0.0 1007630
14:00+22wsw3363100 0.4 10051260
17:00+20ssw3578100 1.4 1005474
20:00+18sw239197 1.4 100465